Regional Weather Roundup
Issued by NWS

Home | Current Version | Previous Version | Graphics & Text | Print | Product List | Glossary On
Versions: 1 2 3 4 5 6 7 8 9 10 11 12 13 14 15 16 17 18 19 20 21 22 23 24 25 26 27 28 29 30 31 32 33 34 35 36 37 38 39 40 41 42 43 44 45 46 47 48 49 50
000
ASUS43 KLOT 281613
RWRIL

ILLINOIS REGIONAL WEATHER ROUNDUP
NATIONAL WEATHER SERVICE CHICAGO/ROMEOVILLE IL
1100 AM CDT FRI AUG 28 2015

NOTE: "FAIR" INDICATES FEW OR NO CLOUDS BELOW 12,000 FEET WITH NO
SIGNIFICANT WEATHER AND/OR OBSTRUCTIONS TO VISIBILITY.

* THESE STATIONS ARE NOT UNDER NWS QUALITY CONTROL. THEY ALSO MAY NOT
  REPORT WEATHER SUCH AS PRECIPITATION OR FOG.

ILZ001-002-007-009-015-016-024-281700-
NORTHWEST ILLINOIS

CITY           SKY/WX    TMP DP  RH WIND       PRES   REMARKS
MOLINE         CLOUDY    67  60  78 E3        30.10S
STERLING*      CLOUDY   N/A N/A N/A S3        30.11R
SAVANNA*       CLOUDY    66  59  77 S3        30.12R
$$

ILZ003-004-008-010-011-017-018-281700-
NORTH CENTRAL ILLINOIS

CITY           SKY/WX    TMP DP  RH WIND       PRES   REMARKS
ROCKFORD       CLOUDY    67  60  78 S6        30.15R
FREEPORT*      CLOUDY    64  60  86 SE6       30.15R
ROCHELLE*      CLOUDY    66  61  83 CALM      30.15R
DE KALB*       CLOUDY    65  61  86 S7        30.16S
PERU*          CLOUDY    69  60  72 S5        30.15S
$$

ILZ005-006-012>014-019>023-281700-
NORTHEAST ILLINOIS

CITY           SKY/WX    TMP DP  RH WIND       PRES   REMARKS
CHICAGO-OHARE  CLOUDY    71  59  65 SW8       30.14F
CHICAGO-MIDWAY CLOUDY    73  59  61 SW8       30.15S
AURORA         CLOUDY    67  61  81 S3        30.16S
LANSING*       CLOUDY    72  62  70 S6        30.16S
JOLIET*        CLOUDY    69  62  79 S3        30.15F
WAUKEGAN       CLOUDY    72  60  66 SW7       30.14S
DUPAGE AIRPORT CLOUDY    68  60  75 S6        30.14F
KANKAKEE*      CLOUDY    71  64  78 CALM      30.17S
WHEELING       CLOUDY    73  58  59 SW8       30.16S
MORRIS*        CLOUDY    68  62  80 CALM      30.14S
ROMEOVILLE*    CLOUDY    69  60  73 SW3       30.15F
NORTHERLY ISL    N/A     72  58  61 S7          N/A
$$

LMZ740>746-281700-
SOUTHERN LAKE MICHIGAN

STATION/POSITION SKY/WX   TEMP    WIND        PRES    VSBY  WAVE
                          AIR SEA DIR/SP/G                  HT/PER
                          (F)     (DEG/KT/KT) (MB)    (MI)  (FT/S)
SOUTHERN BUOY              67 68  180/  8/  8 1020.9S         1/ 4
WILMETTE HARBOR            61 55  300/  4/  6   N/A           2/ 4
HARRISON CRIB              66     160/  8/ 10   N/A
BURNHAM HARBOR             72     200/  6/  9   N/A
CALUMET HARBOR             69     200/  5/  7   N/A
BURNS HARBOR               69     200/  6/  7 1022.0R
MICHIGAN CITY              68     170/  6/  7   N/A
MICHIGAN CITY 6N           70 70  200/  4/  6   N/A           1
ST. JOSEPH                 69 71  240/  2/  4   N/A           1
$$

ILZ025>027-034>036-040-047-049-050-058-095>099-281700-
WEST-CENTRAL ILLINOIS

CITY           SKY/WX    TMP DP  RH WIND       PRES   REMARKS
QUINCY         CLOUDY    72  61  68 S10       30.08F
GALESBURG*     CLOUDY    65  61  84 SE5       30.11S
MACOMB*        CLOUDY    67  62  84 SE7       30.12S
JACKSONVILLE*  CLOUDY    76  63  62 S12       30.12S
PITTSFIELD*    CLOUDY    73  62  69 S8        30.11S
$$

ILZ028>032-037-038-041>044-048-051>054-059>061-281700-
CENTRAL ILLINOIS

CITY           SKY/WX    TMP DP  RH WIND       PRES   REMARKS
PONTIAC        CLOUDY    74  65  74 S3        30.16S
BLOOMINGTON    CLOUDY    75  62  64 S9        30.16S
DECATUR        CLOUDY    75  59  57 S9        30.15F
PEORIA         CLOUDY    73  61  65 S8        30.13F
LACON*         CLOUDY    69  62  76 S3        30.13R
LINCOLN*       CLOUDY    76  61  61 S8        30.14S
SPRINGFIELD    CLOUDY    75  62  64 S9        30.14S
TAYLORVILLE    CLOUDY    73  61  64 S8        30.14F
$$

ILZ033-039-045-046-055>057-062-063-281700-
EAST-CENTRAL ILLINOIS

CITY           SKY/WX    TMP DP  RH WIND       PRES   REMARKS
CHAMPAIGN      PTSUNNY   74  61  63 S8        30.17R
RANTOUL*       PTSUNNY   74  63  67 SE7       30.16F
MATTOON        PTSUNNY   74  58  57 S5        30.17R
PARIS*         CLOUDY    73  60  64 CALM      30.20R
$$

ILZ079-100>102-281700-
SOUTHWEST ILLINOIS

CITY           SKY/WX    TMP DP  RH WIND       PRES   REMARKS
ALTON          SUNNY     73  61  64 SE8       30.13S
BELLEVILLE     MOSUNNY   75  64  68 E7        30.13R
CAHOKIA*       MOSUNNY   77  61  57 SE9       30.13R
SPARTA*        MOSUNNY   73  63  71 SE5       30.15R
$$

ILZ064>066-069>071-074>076-080>082-084>086-088>090-092>094-281700-
SOUTH-CENTRAL ILLINOIS

CITY           SKY/WX    TMP DP  RH WIND       PRES   REMARKS
CARBONDALE     MOSUNNY   75  62  64 VRB5      30.14R
CAIRO*         SUNNY     77  66  69 CALM      30.13S
EFFINGHAM*     PTSUNNY   74  56  52 CALM      30.18S
MARION         MOSUNNY   77  61  57 S5        30.15S
MT. VERNON     PTSUNNY   75  61  60 SE6       30.16S
CENTRALIA*     PTSUNNY   75  61  60 SE6       30.14R
SALEM*         PTSUNNY   75  60  59 CALM      30.15S
METROPOLIS*    SUNNY     78  64  63 E5        30.14S
$$

ILZ067-068-072-073-078-083-087-091-281700-
SOUTHEAST ILLINOIS

CITY           SKY/WX    TMP DP  RH WIND       PRES   REMARKS
LAWRENCEVILLE  PTSUNNY   76  58  53 E6        30.17R
FLORA*         PTSUNNY   74  58  56 S5        30.17R
FAIRFIELD*     PTSUNNY   74  61  62 CALM      30.15R
HARRISBURG*    MOSUNNY   76  61  58 E7        30.15S
ROBINSON*      PTSUNNY   75  59  58 SE5       30.18R
CARMI*         MOSUNNY   76  62  60 SE8       30.15S
$$

ABBREVIATIONS USED IN REMARKS
   TC - TEMPERATURE IN CELSIUS
  WCI - WIND CHILL INDEX
   HX - HEAT INDEX
  VSB - VISIBILITY
$$




USA.gov is the U.S. government's official web portal to all federal, state and local government web resources and services.